EW4264 Weather Reports


time (UTC)temp
C
wind
direction
speed
KPH
gust
KPH
rain 1hr
cm
rain 24hr
cm
rain mn
cm
humidity
%
barometer
mb
20220811234503 23 89 0.0 1.6 0.00 1.04 1.04 95 989.1
20220811233003 22 89 0.0 0.0 0.00 1.04 1.04 95 989.2
20220811231503 22 89 0.0 0.0 0.00 1.04 1.04 95 989.2
20220811230009 22 89 0.0 0.0 0.10 1.04 1.04 95 988.7
20220811224609 22 89 0.0 1.6 0.15 1.04 1.04 94 988.7
20220811223213 22 89 0.0 3.2 1.02 1.04 1.04 93 988.9
20220811221555 22 91 6.4 16.1 1.04 1.04 1.04 93 989.5
20220811220053 22 129 6.4 16.1 0.97 0.97 0.97 91 990.1
20220811214617 23 102 6.4 16.1 0.89 0.89 0.89 84 990.3
20220811213100 30 37 1.6 9.7 0.03 0.03 0.03 57 989.5
20220811211614 34 91 0.0 3.2 0.00 0.00 0.00 42 988.8
20220811210048 35 37 0.0 3.2 0.00 0.00 0.00 41 988.5
20220811204552 34 141 0.0 6.4 0.00 0.00 0.00 39 988.8
20220811203049 35 206 0.0 1.6 0.00 0.00 0.00 40 988.8
20220811201544 35 206 0.0 4.8 0.00 0.00 0.00 39 988.9
20220811200113 35 120 0.0 8.0 0.00 0.00 0.00 38 989.1
20220811194540 36 218 0.0 6.4 0.00 0.00 0.00 38 989.3
20220811193038 35 304 0.0 8.0 0.00 0.00 0.00 39 989.7
20220811191534 34 122 0.0 4.8 0.00 0.00 0.00 40 989.9
20220811190035 34 230 0.0 4.8 0.00 0.00 0.00 41 990.3
20220811184525 34 225 1.6 9.7 0.00 0.00 0.00 41 990.7
20220811181526 32 169 1.6 6.4 0.00 0.00 0.00 47 991.2
20220811180014 32 347 0.0 6.4 0.00 0.00 0.00 47 991.4
20220811174532 32 218 0.0 4.8 0.00 0.00 0.00 47 991.7
20220811173037 32 204 3.2 6.4 0.00 0.00 0.00 46 991.9
20220811171510 32 237 1.6 9.7 0.00 0.00 0.00 48 992.2
20220811170018 32 214 0.0 3.2 0.00 0.00 0.00 48 992.3
20220811164505 31 234 0.0 3.2 0.00 0.00 0.00 49 992.4
20220811163004 31 231 0.0 1.6 0.00 0.00 0.00 48 992.4
20220811161614 30 111 1.6 6.4 0.00 0.00 0.00 50 992.4
20220811160113 29 226 0.0 3.2 0.00 0.00 0.00 55 992.5
20220811154553 29 139 0.0 4.8 0.00 0.00 0.00 57 992.4
20220811153050 28 139 0.0 3.2 0.00 0.00 0.00 60 992.2
20220811151553 28 118 0.0 4.8 0.00 0.00 0.00 61 992.1
20220811150043 27 120 0.0 4.8 0.00 0.00 0.00 63 992.1
20220811144540 27 228 0.0 4.8 0.00 0.00 0.00 67 992.1
20220811143046 26 99 0.0 0.0 0.00 0.00 0.00 69 992.2
20220811141535 26 99 0.0 4.8 0.00 0.00 0.00 70 992.1
20220811140033 25 53 0.0 1.6 0.00 0.00 0.00 74 992.0
20220811134542 25 53 0.0 1.6 0.00 0.00 0.00 77 992.0
20220811133023 24 53 0.0 1.6 0.00 0.00 0.00 81 991.8
20220811131520 23 53 0.0 0.0 0.00 0.00 0.00 84 991.5
20220811130028 23 53 0.0 1.6 0.00 0.00 0.00 85 991.5
20220811124534 23 53 0.0 0.0 0.00 0.00 0.00 87 991.4
20220811123040 23 53 0.0 1.6 0.00 0.00 0.00 87 991.4
20220811121520 23 53 0.0 0.0 0.00 0.00 0.00 87 991.4
20220811120028 23 53 0.0 1.6 0.00 0.00 0.00 87 991.3
20220811114516 23 53 0.0 0.0 0.00 0.00 0.00 87 991.4
20220811113029 23 53 0.0 1.6 0.00 0.00 0.00 87 991.2
20220811111517 23 53 0.0 1.6 0.00 0.00 0.00 87 991.2
20220811110015 23 53 0.0 0.0 0.00 0.00 0.00 86 991.2
20220811104519 23 53 0.0 1.6 0.00 0.00 0.00 86 991.1
20220811103032 23 356 0.0 1.6 0.00 0.00 0.00 85 991.3
20220811101514 23 47 0.0 1.6 0.00 0.00 0.00 85 991.4
20220811100008 23 47 0.0 1.6 0.00 0.00 0.00 85 991.5
20220811094512 23 47 0.0 0.0 0.00 0.00 0.00 84 991.5
20220811093008 23 47 0.0 0.0 0.00 0.00 0.00 84 991.7
20220811091506 23 47 0.0 1.6 0.00 0.00 0.00 83 991.8
20220811090004 23 99 0.0 0.0 0.00 0.00 0.00 83 991.8
20220811084505 23 99 0.0 0.0 0.00 0.00 0.00 83 991.9
20220811083128 23 99 0.0 0.0 0.00 0.00 0.00 83 992.0
20220811081618 23 99 0.0 0.0 0.00 0.00 0.00 82 992.0
20220811080136 23 99 0.0 0.0 0.00 0.00 0.00 81 992.1
20220811074559 23 99 0.0 0.0 0.00 0.00 0.00 81 992.2
20220811073053 23 99 0.0 0.0 0.00 0.00 0.00 81 992.4
20220811071552 23 99 0.0 0.0 0.00 0.00 0.00 80 992.7
20220811070050 24 99 0.0 0.0 0.00 0.00 0.00 80 992.7
20220811064548 24 99 0.0 0.0 0.00 0.00 0.00 79 992.9
20220811063057 24 99 0.0 0.0 0.00 0.00 0.00 78 993.1
20220811061546 25 99 0.0 0.0 0.00 0.00 0.00 77 993.1
20220811060042 25 99 0.0 1.6 0.00 0.00 0.00 77 992.9
20220811054538 25 133 0.0 1.6 0.00 0.00 0.00 76 992.8
20220811053037 25 80 0.0 1.6 0.00 0.00 0.00 76 992.8
20220811051540 25 80 0.0 1.6 0.00 0.00 0.00 75 992.6
20220811050035 25 305 0.0 1.6 0.00 0.00 0.00 73 992.8
20220811044532 26 79 0.0 3.2 0.00 0.00 0.00 71 993.0
20220811043028 26 326 0.0 3.2 0.00 0.00 0.00 71 993.3
20220811041537 26 306 0.0 1.6 0.00 0.00 0.00 69 993.2
20220811040039 26 181 0.0 0.0 0.00 0.00 0.00 67 993.0
20220811034536 26 181 0.0 0.0 0.00 0.00 0.00 66 992.6
20220811033026 27 181 0.0 3.2 0.00 0.00 0.00 66 992.1
20220811030044 26 231 0.0 1.6 0.00 0.00 0.00 67 992.2
20220811024522 26 231 0.0 1.6 0.00 0.00 0.00 68 992.0
20220811023053 26 227 0.0 1.6 0.00 0.00 0.00 68 991.7
20220811021528 27 227 0.0 0.0 0.00 0.00 0.00 68 991.3
20220811020020 27 213 0.0 0.0 0.00 0.00 0.00 67 991.4
20220811014525 27 228 0.0 0.0 0.00 0.00 0.00 67 991.0
20220811013018 27 228 0.0 3.2 0.00 0.00 0.00 66 991.1
20220811011518 27 185 0.0 4.8 0.00 0.00 0.00 66 991.1
20220811010045 28 212 0.0 8.0 0.00 0.00 0.00 63 990.7
20220811004517 29 236 0.0 6.4 0.00 0.00 0.00 59 990.6
20220811003020 30 218 1.6 12.9 0.00 0.00 0.00 57 990.1
20220811001515 30 29 0.0 8.0 0.00 0.00 0.00 55 990.2
20220811000029 31 199 3.2 14.5 0.00 0.00 0.00 49 990.0